Wind_Speed
88 90 90 92 93 90 88 87 87 86 86 85 84 84 83 82 81 80 79 78 77 75 72 67 64 63 62 62 64 65 64 64 64 63 61 55 50 49 50 52 52 51 49 46 44 43 42 41 39 36 35 34 33 34 34 34 35 35 34 33 31 29 29 26 21 19 20 21 21 21 21 20 19 18 18 17 17 16 16 15 13 11 10 10 10 9 10 11
85 87 89 91 93 92 88 86 86 86 85 85 85 84 84 83 81 80 79 79 78 76 73 69 65 61 61 63 64 64 63 63 64 63 60 58 55 52 51 51 52 52 50 48 46 44 43 42 41 39 37 36 35 34 34 35 35 36 35 33 31 29 30 29 24 21 21 21 21 21 21 20 19 19 19 19 19 18 16 15 14 12 11 10 10 10 10 11
84 84 86 89 92 92 88 86 85 85 85 85 85 85 84 83 81 80 80 79 79 77 74 71 69 65 61 61 61 62 62 64 65 62 59 60 59 56 55 53 52 53 52 50 48 46 45 45 43 42 40 38 37 36 35 35 35 35 35 33 31 31 32 32 28 24 23 22 21 22 22 20 19 19 19 19 20 20 18 16 15 13 12 11 10 10 11 11
83 81 84 87 89 90 86 85 86 84 84 84 85 85 84 83 82 81 80 79 79 77 75 71 70 69 64 59 58 59 61 65 66 60 59 61 59 57 56 54 53 53 53 52 50 48 47 46 45 43 41 39 38 37 35 34 35 34 33 32 32 34 34 33 31 27 25 24 23 23 23 22 20 20 20 19 20 21 19 17 16 15 13 11 10 10 11 11
83 78 81 84 87 87 83 83 85 84 84 84 85 85 84 83 82 81 80 79 79 77 75 73 70 68 65 62 58 56 59 65 66 61 60 62 60 58 57 56 55 55 55 54 52 51 49 47 46 43 42 41 39 38 36 34 34 32 31 31 33 36 35 35 35 30 27 25 24 24 23 22 21 21 21 19 20 21 20 19 17 16 15 12 11 10 10 11
85 76 75 81 84 83 80 80 83 84 84 84 84 85 84 83 81 80 80 78 78 77 75 73 71 67 65 65 63 58 57 61 63 62 62 62 62 60 58 57 56 56 55 54 53 51 50 48 46 44 42 41 40 38 37 36 35 32 31 31 33 36 36 37 36 33 29 27 25 24 23 22 21 21 21 19 19 19 20 19 18 17 16 14 12 11 10 11
88 80 74 76 79 80 79 78 80 83 85 84 84 84 83 82 81 80 78 77 77 77 75 73 72 69 67 67 66 61 57 57 58 60 62 62 63 62 60 59 58 57 55 54 53 52 50 49 45 44 43 41 41 39 39 38 36 34 31 31 33 35 37 38 37 36 32 29 27 25 23 22 21 21 19 18 19 18 18 19 18 18 17 15 14 12 11 11
89 83 76 74 75 77 77 77 77 80 83 84 84 83 82 81 81 79 77 76 76 77 76 74 73 71 70 69 69 66 61 59 59 57 59 62 63 64 62 60 59 57 56 55 54 53 52 49 44 43 44 43 41 40 40 39 38 36 34 33 33 35 38 39 38 37 35 32 30 28 26 25 23 21 17 16 19 18 17 18 18 17 18 17 16 13 12 11
88 84 78 75 75 76 75 73 75 77 81 84 83 82 82 81 80 79 77 75 75 76 76 75 74 72 72 71 72 71 62 57 60 56 55 60 62 64 63 61 60 58 56 56 56 54 53 51 46 43 43 43 42 41 41 42 41 38 36 35 35 36 38 39 39 38 37 34 32 30 29 28 26 23 19 19 21 19 17 19 18 17 18 18 17 15 13 12
88 84 77 72 72 74 74 71 73 75 78 82 83 81 82 81 80 79 77 75 74 75 76 76 75 74 75 75 75 73 61 52 57 56 54 56 59 62 63 61 60 59 57 57 57 56 54 52 51 48 44 43 43 43 44 45 43 40 38 38 37 37 38 39 39 38 37 36 33 31 31 30 29 24 19 21 24 22 19 20 19 18 18 18 18 18 15 13
90 86 78 70 67 70 72 71 72 74 75 80 82 81 81 81 80 78 77 75 73 74 76 75 76 76 76 77 77 72 64 56 54 55 54 54 56 59 62 63 61 60 59 57 57 57 56 54 53 52 49 46 44 45 46 46 44 42 40 40 39 39 39 38 38 38 37 36 34 33 32 32 30 21 18 24 27 25 22 20 20 19 18 18 18 19 18 16
89 87 80 73 68 68 70 70 70 71 73 77 80 80 79 80 79 78 76 74 73 73 75 74 75 77 77 77 77 72 68 63 57 54 53 53 56 57 58 61 61 60 59 58 58 57 57 57 55 54 53 51 48 46 47 47 46 44 43 42 41 41 41 39 38 38 37 37 35 34 34 33 27 19 20 27 29 27 23 20 20 19 19 19 18 18 19 19
86 84 80 76 71 68 69 69 68 68 70 75 79 79 78 79 79 77 76 74 73 71 72 73 73 75 77 76 75 74 73 70 62 56 51 50 55 58 57 58 59 60 60 59 58 58 58 58 57 55 55 54 53 52 50 48 47 45 45 45 44 44 43 41 40 39 37 37 36 36 36 31 25 22 26 29 30 28 23 20 20 20 20 20 18 18 19 20
83 80 77 75 73 71 69 67 66 66 67 72 77 78 77 77 78 77 75 73 72 71 71 72 72 72 76 77 75 74 76 75 68 61 53 48 52 57 58 56 56 57 58 59 59 58 59 58 58 58 57 56 55 56 55 52 49 47 48 48 47 47 45 42 42 41 39 38 37 38 39 30 24 27 29 30 31 29 24 22 22 21 20 20 19 18 18 19
80 79 77 74 73 73 70 66 65 65 65 69 74 76 76 76 77 76 75 73 72 72 71 72 75 73 74 76 77 75 77 78 74 67 58 49 48 53 56 56 54 54 55 58 59 59 60 59 59 59 59 58 56 56 57 55 53 50 49 50 50 49 47 43 42 42 40 40 39 40 41 29 24 30 30 30 31 30 27 25 24 21 20 20 19 19 19 19
79 80 80 75 70 72 70 67 65 63 63 65 71 75 75 75 77 76 76 74 72 72 71 73 77 77 73 74 77 79 79 80 78 72 64 52 45 48 54 55 53 54 54 54 58 60 60 60 60 60 60 59 58 57 58 58 56 54 53 51 50 50 50 46 44 44 41 42 41 42 41 29 25 31 33 31 31 31 30 28 27 23 20 19 18 18 18 19
80 81 84 77 69 70 69 66 65 63 62 64 68 73 75 76 77 77 77 75 73 71 71 74 77 78 78 73 74 80 80 80 79 75 68 58 47 43 49 53 52 53 54 54 56 58 60 62 61 61 61 60 60 59 59 60 58 56 55 54 54 53 52 50 47 45 43 43 42 42 42 31 26 32 34 34 33 33 32 31 30 25 20 19 18 18 18 18
80 82 86 80 68 67 69 66 63 61 63 64 67 73 76 77 78 78 77 75 74 73 73 76 77 80 83 77 71 75 77 78 78 76 73 67 55 44 43 50 52 52 54 56 57 57 58 61 62 63 63 62 61 61 61 60 58 57 56 57 57 55 53 51 46 44 44 44 43 43 44 34 28 33 36 36 37 36 35 34 31 27 22 20 20 19 18 18
79 81 84 79 69 66 68 66 63 61 62 65 68 72 75 77 78 79 78 77 77 77 77 78 78 79 80 77 72 70 73 76 77 77 77 73 65 54 44 46 53 54 54 56 58 59 57 58 62 64 64 63 62 60 60 59 58 58 58 58 58 55 53 51 47 45 44 45 45 45 46 39 31 34 37 38 39 38 37 34 31 28 26 24 23 21 19 17
78 78 79 76 69 66 67 67 64 62 62 64 66 71 77 80 81 82 80 79 79 77 76 74 74 74 71 73 74 71 71 74 75 76 78 76 71 65 53 47 54 59 58 56 57 58 58 58 60 60 58 58 59 59 58 59 60 60 59 58 58 56 54 51 49 48 47 48 48 46 48 44 35 34 37 39 41 40 38 34 31 29 29 29 27 24 22 19
76 76 76 72 69 68 68 67 65 62 61 63 66 71 78 80 79 80 81 79 78 75 72 70 71 72 70 70 72 73 74 74 75 76 79 79 74 70 63 52 53 60 61 59 58 56 57 60 59 54 53 53 55 58 59 59 61 60 59 58 58 57 54 52 51 50 49 50 50 48 49 47 38 35 37 39 42 42 39 35 32 31 31 31 29 26 26 25
76 77 76 69 67 68 68 67 64 62 61 62 67 71 72 74 72 74 76 77 77 74 72 71 71 71 69 68 70 73 76 75 75 77 79 82 78 72 70 60 52 57 62 63 63 59 57 61 60 54 52 52 53 57 60 61 62 62 61 59 59 58 56 54 52 51 51 52 52 51 51 49 43 38 38 41 43 42 40 37 34 33 33 31 29 29 28 27
78 79 78 70 64 67 68 67 63 62 64 61 63 66 66 69 70 72 74 75 76 76 75 74 72 71 68 68 70 73 75 74 74 76 78 81 79 72 72 68 55 53 59 64 67 63 58 59 61 58 55 55 56 57 59 62 64 64 63 62 60 59 57 56 53 52 53 53 54 53 53 53 47 43 41 42 43 42 40 39 37 35 34 32 32 31 29 27
80 79 79 72 64 67 67 67 65 64 64 61 59 60 62 68 70 72 75 74 75 75 75 76 73 71 69 68 69 71 75 75 73 74 76 78 79 75 72 72 66 56 54 60 66 64 59 56 57 58 58 59 59 59 59 61 63 64 64 63 61 59 58 57 55 54 54 54 55 55 56 56 52 48 43 41 44 44 40 40 39 36 34 34 33 32 29 28
81 79 78 72 66 68 68 70 71 67 63 60 59 61 65 68 69 71 74 74 75 74 74 76 74 73 71 68 69 71 74 76 74 74 75 75 79 79 74 75 75 64 54 55 59 58 55 53 54 55 56 58 58 58 59 59 60 61 61 60 59 58 57 57 57 56 56 55 55 56 60 58 54 51 47 42 44 45 43 42 40 36 34 33 32 30 30 29
80 79 76 69 65 69 69 71 72 68 65 60 58 63 66 68 69 71 73 74 76 76 75 75 74 73 71 70 71 71 73 75 74 74 75 75 77 79 80 79 79 73 64 59 57 52 50 49 50 53 54 54 55 56 58 58 59 60 58 57 58 58 58 58 58 58 58 57 56 57 61 61 57 53 49 45 44 45 45 43 41 37 34 33 31 29 30 30
80 78 74 67 65 69 71 70 68 65 63 57 55 61 66 68 71 72 74 76 77 77 76 75 74 72 71 72 72 71 73 73 71 72 73 75 76 78 81 83 82 80 77 73 62 50 45 45 46 49 51 52 54 55 55 56 58 58 56 57 58 58 59 60 58 57 56 56 56 57 59 62 60 54 50 48 46 45 45 44 42 39 36 34 33 30 30 30
80 76 69 63 64 68 68 69 67 61 56 51 52 60 66 69 73 75 77 80 78 75 75 75 74 72 71 72 72 72 73 70 68 69 69 72 75 77 79 81 81 82 83 83 70 54 49 46 42 44 47 49 50 50 50 51 54 57 56 56 58 58 60 59 57 56 55 53 54 54 55 61 64 57 52 51 49 47 46 43 41 40 38 36 35 32 30 31
79 73 63 57 62 67 67 66 64 59 54 51 54 63 69 71 75 77 79 81 75 72 74 74 73 73 72 71 72 72 71 70 69 67 66 69 72 74 76 76 78 82 84 86 79 70 65 55 48 47 45 44 44 42 43 45 48 53 55 55 55 57 58 57 55 55 53 54 56 55 54 59 65 61 56 54 51 49 48 45 42 40 38 37 36 34 33 32
77 70 58 54 63 69 68 65 61 58 55 52 56 64 70 74 77 80 82 81 74 70 72 73 73 73 73 72 72 72 71 70 69 67 67 68 69 71 74 75 77 81 83 84 82 81 77 67 61 54 43 39 41 40 40 41 43 46 49 53 54 56 57 56 55 54 52 56 59 58 56 59 65 64 60 58 53 49 49 48 45 42 38 37 37 36 36 34
73 67 56 52 61 68 67 65 62 59 56 55 57 66 72 74 77 82 83 80 74 71 70 72 73 72 72 72 71 72 71 71 69 69 70 69 68 70 72 74 76 78 81 82 82 82 82 79 74 61 48 43 43 42 41 39 40 40 42 48 51 54 56 56 57 56 57 60 59 58 59 62 68 67 62 60 55 50 49 49 46 42 38 37 37 37 37 36
71 65 54 48 57 64 64 63 63 61 60 58 61 68 74 74 75 79 80 75 75 76 72 70 72 71 70 71 70 70 70 71 70 70 70 69 68 69 70 72 74 76 79 81 81 82 83 83 81 75 67 59 51 48 44 39 39 38 37 42 46 49 51 55 57 57 60 63 59 59 62 66 71 68 61 60 58 51 49 48 45 42 40 38 37 38 38 38
69 63 52 47 54 60 59 61 63 64 64 63 64 69 74 76 77 77 75 73 75 77 72 68 68 67 68 70 70 71 70 70 70 70 70 70 70 69 69 70 70 72 74 75 76 81 82 79 79 82 82 75 66 56 45 38 38 37 35 37 41 43 44 48 52 52 55 58 58 60 64 67 70 66 60 60 60 54 48 46 45 41 39 37 37 39 39 38
64 60 53 48 51 57 58 59 61 63 65 65 67 71 76 78 77 74 72 73 73 73 70 67 65 64 67 68 69 71 71 71 70 69 69 70 71 72 71 71 70 69 70 70 71 75 77 74 72 78 82 79 74 65 55 49 46 44 40 38 41 43 43 44 45 45 45 46 51 57 62 67 67 62 58 60 62 59 51 46 44 40 36 37 38 40 40 39
58 56 54 49 51 57 58 59 60 61 65 67 69 74 77 76 74 72 71 72 72 69 67 67 65 63 66 67 68 69 70 71 70 69 69 70 72 72 72 73 72 70 70 71 71 71 74 74 70 69 71 71 70 69 68 66 63 61 57 54 50 46 45 45 44 44 42 41 47 56 61 64 64 61 59 60 63 64 58 50 46 41 36 37 40 40 40 39
57 55 55 50 51 56 57 58 60 62 65 68 72 74 72 67 63 63 65 67 68 66 64 66 67 66 64 66 68 68 68 69 68 68 69 69 70 72 73 73 72 72 71 70 71 71 72 74 71 66 67 68 67 66 67 68 68 69 67 65 60 53 49 47 45 43 42 44 47 50 55 59 62 64 62 61 63 65 62 53 48 46 41 39 41 40 38 37
57 55 55 51 52 55 55 56 60 64 65 67 70 67 61 57 55 57 61 64 65 64 64 66 68 68 67 65 66 67 68 68 68 68 68 68 70 71 72 72 72 72 72 70 71 71 71 72 71 68 65 65 63 59 59 63 67 70 71 70 66 63 61 56 53 48 44 47 48 46 49 53 58 66 65 61 61 62 63 58 50 47 46 43 42 41 39 37
55 51 51 50 51 54 55 54 56 60 62 64 64 59 56 55 54 57 60 61 63 63 64 66 66 66 67 66 64 63 65 67 68 68 68 68 70 70 69 71 71 71 71 70 71 71 72 72 72 70 66 64 62 57 55 58 62 67 72 72 67 66 69 68 67 63 55 54 53 47 48 50 55 65 65 61 59 59 62 62 57 51 49 48 46 43 42 40
53 51 51 49 49 51 54 54 53 55 59 61 58 55 55 55 52 53 55 56 57 57 61 64 64 63 64 63 63 62 62 63 65 67 68 69 69 67 66 67 68 69 69 70 71 71 71 72 73 72 67 62 60 60 62 61 60 61 66 70 65 62 67 70 71 70 67 66 63 54 50 49 49 56 59 57 58 59 59 61 61 56 51 51 51 48 47 46
52 52 52 50 48 49 52 54 54 55 56 55 53 52 53 52 51 51 53 54 55 55 56 57 56 57 58 58 60 61 62 62 62 63 64 66 66 65 65 65 66 66 66 68 69 69 69 71 72 73 70 65 60 59 61 60 59 61 63 66 64 59 60 63 66 69 69 71 72 67 62 50 40 44 50 52 55 58 58 59 60 59 54 51 53 54 55 55
54 52 51 51 50 51 53 55 56 55 52 51 53 52 52 52 51 52 52 53 53 51 50 48 47 48 50 51 53 55 58 61 62 62 62 63 64 63 63 62 62 63 64 67 68 68 69 70 71 73 74 72 66 60 57 53 52 54 55 57 59 57 53 51 55 60 61 64 68 72 72 55 37 36 42 45 50 53 53 56 59 59 57 52 50 54 58 59
54 52 51 51 51 52 53 54 54 52 50 50 51 51 51 51 51 52 52 51 50 49 48 46 44 44 45 46 47 47 50 53 56 58 60 60 61 60 59 58 58 60 62 65 65 65 66 68 69 72 74 74 71 66 63 60 57 54 53 53 53 55 53 50 53 55 54 56 57 62 72 61 42 38 41 40 46 50 50 53 55 57 58 53 49 51 55 60
52 52 50 51 52 52 53 53 52 51 49 49 49 50 50 51 51 52 52 51 51 49 48 46 44 43 43 43 43 44 45 46 47 49 51 53 55 55 55 56 57 58 60 62 63 63 64 66 67 69 70 72 72 68 64 63 64 64 63 60 58 58 57 56 58 58 56 57 55 55 65 61 47 44 47 42 43 48 50 51 52 54 55 52 48 46 48 54
54 53 52 51 51 52 54 53 52 51 50 49 50 50 49 50 50 50 50 50 49 48 47 45 44 44 44 43 43 43 43 44 45 44 44 45 45 46 48 50 52 54 56 58 59 61 64 67 67 68 70 72 73 73 69 65 65 67 66 64 63 62 60 59 59 59 58 59 58 56 61 61 53 49 50 47 44 43 46 48 47 48 48 45 41 39 38 41
56 55 54 53 52 52 53 52 48 47 49 50 50 49 49 50 50 49 49 49 49 48 47 45 44 44 45 46 46 46 46 46 45 44 44 43 41 43 45 46 47 50 51 52 53 55 58 61 64 66 71 74 76 77 75 70 68 69 69 68 67 65 64 64 63 64 64 59 56 58 58 57 57 55 52 52 49 44 45 46 45 44 42 38 35 35 35 35
58 57 55 55 55 53 52 51 47 45 46 48 49 49 49 49 49 49 50 51 50 49 48 47 46 46 47 47 47 47 45 44 44 45 44 42 40 41 43 44 46 47 47 49 51 53 55 58 60 63 67 73 76 75 73 73 73 73 73 72 71 68 66 66 66 68 68 63 62 61 54 47 48 50 52 55 53 47 46 47 45 44 43 40 37 36 36 36
58 59 57 56 56 53 51 52 50 47 44 44 45 46 47 47 47 49 50 50 49 49 49 49 49 49 48 47 46 45 42 43 45 44 42 41 40 41 43 45 46 46 46 48 52 53 55 57 59 61 65 70 74 74 74 75 76 76 75 74 73 72 70 70 72 69 65 65 68 64 56 50 42 38 44 54 55 51 48 49 49 48 47 45 43 41 39 38
57 57 55 55 55 54 52 51 49 47 44 43 42 43 45 46 47 49 49 48 48 48 49 48 47 46 44 43 44 44 43 45 46 44 41 40 40 42 44 45 46 46 47 50 52 53 55 58 57 59 64 67 70 72 73 75 78 78 79 78 76 75 73 73 74 71 66 67 67 60 57 58 49 38 39 47 53 54 52 51 52 52 51 49 48 47 42 39
56 55 52 51 52 51 47 45 46 46 44 43 44 44 45 46 46 46 47 48 48 47 46 44 41 41 41 43 46 47 46 46 45 42 40 40 40 42 45 47 47 47 50 53 54 54 57 59 57 57 61 64 66 68 69 72 75 77 79 80 78 78 76 73 73 73 72 72 68 61 58 59 55 47 43 43 48 53 54 54 53 53 54 52 52 51 46 44
53 53 51 49 49 47 44 43 45 45 44 45 45 46 47 47 47 46 47 48 46 45 45 42 38 41 44 46 49 48 46 44 42 41 41 42 44 45 47 49 48 49 52 55 55 57 59 60 59 59 63 65 64 65 66 69 72 75 77 79 78 77 77 75 73 72 73 74 72 66 63 61 53 47 47 51 53 52 52 55 55 55 55 56 55 53 49 48
49 50 50 49 48 48 46 45 44 44 45 45 43 43 44 44 44 45 46 45 44 43 43 40 39 43 47 49 50 46 42 42 43 43 45 47 48 49 51 52 52 53 55 56 57 59 60 61 60 62 67 68 65 64 66 67 70 74 76 76 76 77 77 78 77 75 73 73 72 70 70 65 50 42 48 54 54 54 54 55 56 57 55 54 54 53 50 49
46 47 48 48 48 48 47 46 46 45 44 42 39 40 41 40 42 45 46 44 43 43 42 40 42 46 48 49 45 40 39 44 46 47 49 51 52 53 55 56 56 57 59 59 60 61 61 61 61 63 66 66 62 63 65 66 71 76 77 75 75 76 77 79 80 80 78 75 73 72 70 63 55 54 57 55 51 54 57 56 55 56 54 52 52 54 54 52
Wind_Direction
225 226 225 226 227 228 229 229 229 229 228 228 228 227 227 227 226 225 225 226 225 225 226 224 225 228 230 228 226 225 224 225 226 227 227 224 221 222 222 223 227 229 229 229 229 230 232 233 232 230 229 228 228 228 229 231 231 232 233 235 240 246 253 250 237 233 235 235 238 242 247 251 256 263 266 267 267 264 261 263 271 278 279 283 288 288 283 278
225 226 226 226 227 228 227 227 228 229 228 228 227 227 227 227 226 225 225 225 225 225 224 222 221 223 226 227 227 226 224 225 227 227 227 225 223 223 223 224 228 230 230 230 229 230 232 233 232 230 229 228 228 228 228 230 231 232 232 234 239 245 250 250 242 235 234 234 236 240 244 248 251 255 259 263 266 265 263 261 264 272 276 278 283 287 283 278
223 225 226 226 226 228 227 227 227 227 228 227 227 226 226 226 226 225 224 225 225 224 224 222 219 219 222 226 228 227 225 225 227 227 226 227 226 225 226 227 228 230 230 231 231 230 231 233 233 231 230 229 228 228 228 229 231 232 233 234 238 242 245 247 243 236 232 232 234 237 241 245 248 250 252 258 264 267 266 262 261 265 270 272 277 282 283 279
220 223 225 226 226 227 227 227 226 226 227 227 226 226 225 225 225 224 223 224 224 224 223 222 221 219 220 224 228 229 227 227 227 225 224 228 228 226 226 227 227 229 230 231 232 232 232 233 234 234 232 231 230 230 229 230 231 231 233 235 237 240 242 245 244 235 231 232 232 234 239 243 246 248 249 252 260 266 267 265 261 261 264 266 271 278 282 281
217 219 222 224 225 226 227 226 225 225 225 226 226 225 225 224 224 224 223 223 223 223 222 221 221 219 218 221 223 226 227 228 227 223 222 226 228 226 225 225 226 227 230 230 232 233 234 235 235 236 235 233 232 232 231 232 233 232 233 235 237 239 241 243 244 237 230 231 232 233 238 241 243 246 248 250 254 260 266 267 264 261 261 262 265 274 280 280
215 217 219 221 223 225 226 226 224 223 224 224 225 225 224 224 223 223 222 222 222 222 221 220 220 217 216 219 221 222 225 227 227 222 221 225 227 227 224 224 225 226 228 229 230 232 233 235 235 236 235 234 233 232 232 233 234 234 233 235 237 239 240 242 244 242 235 232 233 233 237 241 242 244 249 251 251 254 260 266 268 265 261 260 261 267 276 277
215 217 218 219 221 223 225 226 225 222 223 223 223 224 223 223 223 222 221 221 221 221 220 219 219 216 213 217 220 222 223 225 224 220 221 223 225 226 225 224 224 224 226 228 229 230 232 233 235 237 235 233 233 231 231 232 233 233 233 235 237 239 240 240 242 244 241 237 234 235 238 242 241 242 246 249 250 251 255 261 266 267 265 260 257 260 268 272
215 216 218 218 218 219 221 225 226 222 221 222 222 222 222 222 223 222 220 219 219 220 219 218 218 216 212 214 218 221 223 226 224 220 221 223 224 226 226 225 224 223 224 226 228 229 230 231 233 237 237 234 232 231 231 232 232 232 233 235 237 238 239 239 240 242 243 240 237 235 238 240 239 237 238 245 252 253 253 257 260 264 265 261 256 256 263 269
213 214 216 217 218 217 218 222 225 223 221 221 221 221 221 221 221 222 220 218 218 219 218 216 217 216 213 212 215 217 220 226 228 224 223 224 225 226 225 225 225 224 223 224 227 228 229 229 227 231 237 236 233 232 231 231 231 231 232 233 234 237 238 238 239 241 242 242 239 237 238 239 237 234 235 247 256 256 251 251 252 255 259 260 257 253 257 265
212 212 211 214 217 216 216 220 223 222 220 220 219 219 220 220 220 220 220 218 217 218 218 216 215 215 213 211 214 214 213 222 227 224 224 225 227 228 226 225 224 225 224 223 226 227 229 229 227 226 231 236 236 234 232 231 231 231 233 233 233 235 237 238 239 241 242 243 242 239 238 237 237 235 238 249 254 254 247 244 246 248 251 254 255 253 253 258
212 211 209 210 214 213 214 218 222 222 219 219 218 218 218 219 219 219 219 218 216 217 218 217 216 216 214 212 214 212 210 217 221 221 222 224 227 228 226 225 225 225 225 224 224 226 227 228 228 226 227 231 234 233 232 231 230 230 232 234 233 234 236 237 239 241 244 245 244 243 240 237 235 234 241 245 247 249 244 240 242 244 247 248 250 252 252 253
213 213 212 212 213 212 213 218 222 222 219 219 218 216 216 217 218 218 218 218 217 216 216 217 217 216 215 214 214 211 209 214 218 218 218 220 226 228 227 226 226 225 225 225 225 226 227 228 228 228 227 228 230 231 231 231 229 228 231 233 234 234 235 236 238 240 243 246 247 247 245 241 237 232 236 241 243 247 244 240 241 242 243 245 246 249 251 252
212 213 214 214 214 213 213 217 222 222 219 218 217 215 215 216 217 217 217 216 216 216 216 215 217 218 217 215 214 211 209 212 215 215 215 218 224 227 228 227 227 227 226 226 225 226 227 228 229 228 229 228 229 232 233 233 230 229 230 232 234 236 237 236 238 239 241 244 247 249 247 244 241 234 234 240 244 246 243 239 240 239 240 242 243 245 249 252
211 211 211 213 215 214 213 215 220 223 219 217 216 215 214 214 216 216 215 215 214 215 215 213 215 218 219 216 214 212 209 210 213 212 213 217 222 225 225 225 226 227 229 228 226 227 227 229 230 229 229 229 230 233 235 235 233 231 230 232 234 237 238 238 239 240 240 242 245 248 247 241 239 237 235 239 245 246 243 238 238 238 239 240 242 242 245 249
208 207 206 210 213 212 212 214 219 222 220 217 215 213 212 213 214 215 214 213 213 213 213 212 212 215 218 216 214 213 210 210 212 212 211 214 219 223 223 222 222 223 227 229 227 227 227 228 229 230 231 231 231 232 235 236 235 234 233 234 235 237 239 238 240 242 241 243 243 246 247 241 236 241 238 238 243 247 245 241 240 239 240 242 243 243 243 245
205 203 203 207 209 210 211 214 218 221 220 217 215 212 211 211 212 213 213 212 212 212 211 211 211 213 216 216 213 213 211 210 212 211 209 210 214 220 220 218 218 219 222 226 227 227 227 228 229 229 230 231 232 232 234 235 236 236 237 237 237 238 240 238 240 243 243 244 245 246 248 242 235 242 243 240 242 245 245 244 243 240 242 245 246 246 248 249
204 202 203 206 208 209 210 213 218 221 221 218 215 212 209 210 211 211 212 210 210 210 210 211 211 211 214 215 214 213 212 211 212 211 209 208 208 214 218 217 217 217 219 223 226 227 227 228 229 229 230 231 232 233 234 235 235 237 238 239 239 238 239 238 238 241 244 246 248 249 250 243 233 240 244 243 242 242 242 244 244 243 244 249 250 248 248 250
203 202 204 206 208 209 210 211 216 220 220 218 215 212 209 209 210 210 211 209 209 208 209 210 209 210 211 212 213 213 212 212 212 211 209 209 208 208 212 216 218 218 219 222 225 227 228 228 228 229 229 229 231 233 235 236 237 238 239 240 240 239 240 240 238 240 244 248 250 252 254 247 234 238 243 244 244 242 241 242 245 247 248 250 251 249 248 248
202 202 203 205 207 209 209 210 214 216 218 217 215 211 209 209 209 208 208 208 208 208 209 209 209 211 212 211 213 213 212 213 213 211 210 210 209 208 209 212 217 219 217 219 222 226 228 230 229 229 230 231 232 233 235 238 239 240 240 240 241 241 241 240 238 237 240 244 246 248 252 248 236 235 240 243 244 244 242 241 243 247 249 249 249 248 250 251
201 201 201 205 209 209 209 209 212 213 214 213 211 209 208 208 207 206 206 206 207 209 211 211 211 213 213 212 214 214 213 214 213 212 211 211 210 211 210 209 213 216 215 215 219 224 228 231 231 232 233 234 234 235 236 237 239 241 241 242 243 243 242 241 239 236 237 241 244 245 248 247 238 235 239 242 245 246 245 243 242 244 247 248 248 248 249 252
199 198 198 204 208 207 208 209 210 212 212 211 209 209 210 209 208 208 208 207 207 208 210 211 212 213 212 211 212 213 214 214 213 212 212 212 212 212 211 208 208 213 216 216 217 221 226 230 231 232 234 233 233 234 235 236 238 241 242 243 244 244 244 243 240 238 238 241 244 244 247 248 241 236 241 244 246 247 246 246 243 242 244 245 249 251 250 250
196 195 196 201 205 205 207 209 211 212 212 211 210 210 212 211 210 211 213 212 210 209 209 210 211 212 212 211 211 212 214 214 213 212 213 214 215 212 210 209 207 208 212 214 214 216 222 229 230 230 232 232 231 231 233 234 236 238 239 240 242 243 244 244 242 241 240 241 243 243 245 247 243 236 238 244 248 248 247 246 244 242 242 244 248 252 252 253
193 193 196 200 204 205 207 208 209 209 209 212 212 210 211 211 210 210 212 213 213 211 209 209 210 210 210 210 211 213 214 215 214 213 214 215 216 215 210 210 209 205 206 209 210 212 218 226 231 231 231 231 231 230 230 232 234 236 237 238 239 241 243 245 244 242 240 241 242 242 244 245 243 237 235 240 245 247 247 247 245 243 244 245 247 250 253 257
192 193 196 199 202 204 206 207 207 206 209 214 215 212 210 209 209 210 210 211 212 212 211 210 210 210 209 209 211 213 214 216 215 214 215 216 218 218 213 211 213 209 206 206 208 210 213 220 227 228 230 230 230 230 229 230 233 235 237 237 239 240 243 246 246 245 242 241 242 243 244 243 242 240 236 236 242 245 247 249 248 246 246 246 247 250 254 256
193 194 196 198 199 201 205 208 207 207 211 213 213 210 207 207 208 209 211 212 211 211 211 211 210 209 209 208 210 212 214 216 215 214 214 215 217 219 217 217 217 214 209 206 207 207 208 213 219 222 224 227 229 230 229 229 231 233 236 237 239 240 243 246 248 248 246 243 242 244 245 243 241 241 239 236 241 245 246 249 251 250 249 249 249 251 254 254
192 194 196 197 197 197 201 206 207 208 211 211 209 208 206 206 206 208 210 212 212 210 210 211 211 210 208 208 209 211 214 215 215 215 214 215 216 217 218 220 221 219 215 212 212 209 206 209 215 218 220 222 226 229 229 230 230 232 233 235 237 239 241 244 247 248 248 246 243 243 246 245 241 240 241 238 239 244 246 249 251 253 253 252 251 251 253 255
192 194 195 197 196 195 198 204 207 208 210 210 209 207 206 205 205 207 209 211 212 210 209 209 210 211 209 209 209 210 214 215 214 215 216 215 216 217 218 220 221 222 222 221 218 210 205 208 212 217 220 221 223 226 230 231 232 232 232 233 235 237 238 241 243 245 247 248 246 243 246 248 243 239 240 240 239 242 246 249 250 252 254 254 252 250 251 253
191 193 195 198 198 196 199 205 209 210 209 210 210 208 206 205 205 206 209 211 211 210 209 209 209 210 210 210 210 211 214 215 214 216 217 217 217 218 219 219 220 223 227 228 223 212 209 209 208 214 220 223 222 224 229 232 233 233 231 232 234 236 238 240 243 244 245 247 247 245 246 248 244 238 239 240 239 240 245 249 251 252 252 253 252 251 250 251
192 192 194 198 199 198 201 204 207 208 206 205 207 206 204 204 205 206 209 211 211 211 211 210 209 209 209 210 211 212 213 214 214 215 216 218 219 219 220 220 220 222 228 232 229 223 220 215 211 213 216 221 222 223 229 233 234 234 233 233 234 236 238 241 244 245 246 245 244 244 246 248 244 238 238 239 238 240 243 247 250 251 252 252 251 250 249 249
192 192 194 199 199 200 201 200 201 203 203 201 203 204 202 202 204 206 208 210 209 209 211 210 210 210 210 211 212 213 214 214 215 214 216 218 219 219 220 220 222 223 227 232 233 230 227 223 220 216 211 216 221 222 227 231 233 234 233 233 235 239 240 242 244 244 245 244 241 242 245 250 246 237 237 240 237 238 242 245 248 250 252 252 251 250 249 250
192 192 196 201 201 201 202 201 200 203 203 199 200 202 202 202 204 206 208 209 208 209 209 210 210 210 211 212 213 214 215 215 216 215 217 218 218 219 220 220 222 224 226 230 233 233 232 231 229 222 215 217 220 220 223 227 228 228 230 231 234 238 240 243 245 244 246 244 240 241 244 248 247 237 235 240 239 238 241 243 246 249 251 252 252 251 251 251
192 193 197 201 202 202 204 205 205 207 205 199 198 201 201 201 203 207 208 207 209 210 209 209 210 210 211 212 214 216 217 217 217 217 218 219 220 220 220 221 223 225 226 227 229 233 236 236 234 230 227 225 224 225 225 225 225 223 223 226 230 234 237 240 243 245 249 247 241 240 243 246 246 240 236 239 241 239 241 244 247 248 249 250 252 252 251 251
192 194 197 199 203 203 203 205 206 206 203 198 199 200 201 202 204 206 207 207 210 212 210 211 212 212 213 214 214 216 217 219 219 219 219 219 221 222 221 223 224 227 228 227 228 233 237 238 236 236 235 232 229 229 228 228 226 222 220 224 227 230 235 238 241 246 252 250 244 242 245 246 245 242 239 240 243 242 240 244 247 246 246 248 250 251 251 250
192 195 198 198 203 204 201 203 205 205 203 200 199 199 200 203 206 207 207 207 211 213 212 212 212 212 214 215 216 217 218 219 220 221 221 221 222 222 222 223 225 227 228 228 229 233 238 241 239 238 238 238 235 233 233 234 232 230 232 236 235 236 243 245 246 251 255 255 249 245 247 248 244 241 241 241 244 245 242 241 244 244 244 246 248 250 251 250
191 195 198 198 202 202 199 201 203 204 206 204 200 200 202 204 207 209 208 207 210 212 212 212 213 213 214 214 216 217 219 220 220 221 222 222 223 224 224 224 225 227 228 228 230 232 236 241 241 240 241 243 242 239 239 239 238 238 240 242 240 241 248 250 249 253 256 254 248 246 248 249 245 241 241 241 242 244 244 241 240 240 240 243 245 245 247 250
192 194 197 199 203 203 201 202 202 203 205 205 203 202 206 210 212 214 214 212 214 215 214 213 213 214 215 215 215 216 218 220 221 221 222 223 223 224 225 225 226 228 229 229 231 232 235 239 241 242 243 243 245 245 244 243 242 242 244 244 243 244 248 250 248 252 255 252 247 246 249 250 246 242 240 241 242 243 246 247 243 240 237 239 242 242 243 247
191 193 196 200 203 204 204 203 203 203 203 205 207 209 212 215 216 216 216 216 217 219 218 216 216 216 216 216 217 217 219 220 220 222 223 223 224 224 224 226 227 228 230 231 232 233 235 237 239 243 245 244 246 248 247 246 244 244 245 245 245 246 247 248 249 252 256 255 252 249 249 249 247 242 239 240 243 244 248 252 250 244 240 239 240 239 241 245
187 190 193 198 201 203 205 204 203 205 206 206 209 213 215 214 213 213 214 216 217 219 220 220 220 220 219 219 219 220 221 222 222 223 223 224 225 225 225 226 228 229 230 232 234 234 235 237 238 241 245 245 246 248 247 246 246 246 246 246 248 249 249 248 249 251 253 256 256 252 249 248 246 242 239 239 241 243 248 252 252 249 244 240 239 237 238 242
185 188 191 194 198 203 206 206 206 207 208 208 208 209 211 212 212 211 212 215 217 219 221 222 222 223 224 224 223 224 224 225 225 225 226 226 227 227 227 228 229 230 231 232 234 235 236 238 238 239 243 244 244 246 246 246 246 246 246 247 250 252 253 253 253 253 253 256 258 255 252 249 245 244 243 240 239 240 244 249 252 254 249 244 242 241 241 242
185 190 194 194 198 204 205 206 209 209 208 208 208 208 210 212 214 212 211 212 214 217 219 221 222 223 225 226 227 227 228 229 229 229 229 230 229 228 228 228 228 229 231 233 234 235 236 238 238 238 241 243 242 244 248 249 248 247 247 248 251 253 254 254 255 255 255 256 257 256 254 249 242 245 246 242 241 241 243 246 251 255 255 250 246 245 245 246
186 192 196 197 199 202 202 204 208 209 208 206 205 206 207 210 213 213 211 210 211 214 217 219 219 221 224 225 226 228 230 231 233 233 234 233 232 231 230 231 231 231 232 233 234 235 236 238 238 238 241 243 243 243 245 247 246 246 247 248 250 251 253 253 254 256 256 256 256 258 258 250 239 249 253 246 245 246 246 248 250 254 259 259 254 249 248 250
188 191 195 198 200 200 199 204 207 208 206 204 204 205 206 207 210 211 212 212 211 213 215 216 216 217 220 221 223 226 228 231 233 234 236 237 236 236 235 235 236 236 236 237 237 238 239 240 239 239 240 242 244 243 241 241 243 243 242 242 242 243 246 248 252 254 255 257 257 259 259 251 239 250 259 253 249 249 249 251 250 253 259 264 264 258 254 253
191 192 194 197 201 202 201 203 204 205 205 204 204 205 205 207 209 210 212 213 214 215 216 216 216 217 218 219 221 222 224 227 230 232 234 236 236 236 237 237 237 237 238 239 239 240 241 242 242 241 241 241 243 244 242 241 243 244 242 241 239 241 243 245 249 252 253 254 253 255 258 252 240 245 255 255 252 249 249 252 252 253 258 263 266 265 261 258
193 193 193 196 201 203 205 205 206 206 205 203 203 204 205 207 209 211 213 214 216 218 219 220 220 219 220 220 221 222 222 224 226 227 229 230 231 231 233 234 234 235 236 238 239 240 242 244 244 243 243 242 242 242 242 240 241 244 245 245 244 245 246 246 248 251 252 253 252 251 254 253 248 248 252 253 255 253 250 253 253 253 255 259 262 261 259 259
194 192 191 193 196 200 203 205 207 208 208 206 204 204 205 207 209 211 213 216 218 219 220 220 221 221 222 221 221 221 222 223 225 225 225 226 225 225 228 229 230 232 234 236 237 237 239 241 243 243 243 243 242 242 243 244 246 247 247 247 248 247 248 249 249 251 252 253 253 253 254 255 252 251 250 249 251 252 250 252 253 252 252 253 254 254 254 256
193 192 190 190 193 197 201 201 200 201 205 207 207 206 206 207 209 211 213 215 216 217 218 218 219 220 221 221 222 222 222 224 227 227 227 227 225 225 227 229 229 230 231 233 233 233 235 237 238 241 243 244 244 244 245 248 250 250 249 249 249 248 249 250 250 250 251 252 253 254 257 256 250 248 249 247 247 247 248 249 252 253 252 252 252 253 255 256
193 194 194 192 192 193 197 200 199 197 200 205 208 209 207 207 209 211 213 214 215 216 217 218 219 220 221 222 224 225 225 227 229 230 231 231 230 228 228 229 230 230 229 230 232 232 234 236 237 239 242 244 244 244 244 245 247 249 249 249 249 250 250 249 250 251 252 253 253 254 256 257 250 242 243 244 245 247 249 250 252 253 254 254 254 254 254 257
193 195 198 198 198 197 198 201 203 203 203 205 208 209 209 209 210 212 214 215 216 216 217 219 220 222 223 225 226 227 227 227 228 230 232 233 232 232 232 232 232 233 232 232 234 235 237 239 239 241 244 245 245 244 244 244 245 246 247 248 248 249 249 249 249 251 252 253 254 254 255 255 249 237 233 240 245 248 250 252 253 252 253 254 256 255 255 258
195 196 197 199 201 202 204 206 209 209 209 208 209 210 211 212 213 215 215 216 216 217 219 222 224 226 226 227 227 228 227 228 230 234 237 238 239 238 238 237 235 236 236 237 238 238 240 242 242 243 246 246 245 245 245 246 246 246 247 247 248 248 248 248 248 248 249 252 254 254 253 252 247 238 233 238 245 247 248 251 252 253 254 257 258 257 255 257
197 199 200 201 201 201 201 204 208 210 211 212 212 212 213 213 214 215 217 218 218 220 222 225 227 228 228 227 227 228 229 233 236 237 238 238 238 238 239 239 238 237 238 240 241 242 244 245 244 245 247 246 244 245 246 247 248 248 247 247 247 247 248 249 248 247 247 249 251 251 250 250 248 243 238 239 244 247 248 250 252 255 258 261 262 260 256 255
197 200 202 203 204 203 202 204 208 211 213 215 215 215 216 215 215 217 219 219 219 220 221 223 226 227 228 228 229 229 232 235 236 235 234 234 234 235 236 237 237 237 239 241 244 246 248 248 247 246 248 247 244 245 247 249 250 250 248 247 246 247 248 249 251 251 250 250 250 250 250 250 249 247 245 243 243 245 248 249 251 255 258 260 262 262 259 256
198 201 202 202 203 205 206 207 208 210 212 214 215 216 217 216 216 218 218 218 218 219 219 221 224 227 228 229 230 232 235 237 236 235 234 233 234 235 236 238 240 241 242 243 244 247 249 249 249 247 248 247 246 246 248 248 248 248 247 247 248 248 249 251 252 253 253 252 250 250 252 252 249 248 249 248 244 243 246 247 249 252 254 256 257 260 261 260
Height
5626 5631 5637 5643 5648 5654 5659 5665 5670 5676 5682 5688 5694 5700 5705 5710 5716 5722 5727 5732 5738 5743 5750 5758 5764 5768 5771 5773 5775 5779 5782 5785 5788 5791 5797 5802 5805 5808 5810 5812 5814 5817 5821 5825 5828 5830 5832 5835 5837 5840 5842 5844 5846 5847 5848 5849 5850 5851 5853 5854 5856 5858 5858 5861 5865 5867 5868 5869 5870 5870 5871 5873 5875 5876 5878 5879 5879 5880 5881 5882 5882 5882 5882 5882 5883 5884 5884 5883
5619 5624 5630 5635 5640 5645 5651 5657 5663 5669 5675 5681 5687 5692 5698 5704 5710 5716 5722 5726 5732 5738 5745 5753 5759 5764 5765 5767 5771 5774 5779 5782 5784 5789 5795 5797 5800 5804 5806 5809 5811 5813 5818 5821 5824 5827 5829 5832 5834 5837 5839 5841 5843 5844 5846 5847 5848 5849 5851 5853 5856 5857 5857 5858 5862 5864 5865 5867 5868 5869 5870 5871 5873 5874 5876 5877 5878 5879 5880 5881 5882 5882 5882 5882 5882 5883 5883 5883
5611 5617 5622 5627 5633 5638 5645 5650 5656 5662 5668 5674 5680 5686 5692 5698 5704 5710 5716 5721 5727 5733 5739 5746 5753 5760 5760 5762 5767 5770 5775 5777 5779 5788 5792 5793 5796 5800 5803 5806 5808 5811 5815 5818 5820 5824 5826 5828 5830 5833 5836 5838 5840 5842 5843 5845 5846 5848 5850 5853 5855 5855 5854 5855 5858 5862 5863 5864 5866 5867 5868 5870 5871 5873 5874 5876 5877 5878 5879 5879 5880 5881 5881 5881 5882 5882 5882 5882
5602 5610 5615 5620 5626 5632 5638 5644 5649 5655 5661 5667 5673 5679 5685 5691 5697 5704 5710 5715 5721 5727 5734 5739 5745 5752 5755 5759 5763 5766 5770 5771 5775 5786 5788 5788 5792 5796 5800 5803 5805 5808 5811 5814 5817 5820 5822 5824 5827 5830 5833 5836 5838 5839 5841 5843 5844 5846 5849 5852 5853 5852 5852 5853 5855 5858 5860 5861 5863 5865 5866 5868 5870 5871 5872 5874 5875 5876 5878 5878 5879 5880 5880 5881 5881 5881 5882 5882
5593 5600 5606 5612 5619 5625 5630 5635 5642 5648 5653 5660 5666 5672 5678 5684 5691 5697 5704 5710 5715 5722 5728 5733 5738 5746 5751 5755 5758 5760 5763 5764 5771 5781 5782 5784 5787 5791 5796 5798 5801 5804 5807 5811 5813 5816 5818 5821 5824 5828 5831 5833 5836 5838 5840 5842 5843 5845 5848 5850 5850 5849 5851 5852 5852 5855 5858 5859 5861 5862 5864 5866 5868 5870 5870 5872 5873 5874 5876 5877 5878 5879 5879 5880 5880 5881 5881 5881
5585 5592 5598 5603 5612 5619 5623 5627 5633 5641 5646 5652 5658 5665 5672 5678 5685 5691 5698 5705 5710 5716 5722 5727 5733 5740 5746 5750 5753 5753 5756 5759 5768 5775 5777 5780 5783 5786 5791 5793 5797 5800 5803 5807 5809 5812 5815 5818 5821 5825 5828 5831 5833 5836 5838 5839 5841 5844 5846 5847 5847 5847 5848 5849 5850 5853 5855 5857 5859 5861 5862 5864 5866 5868 5869 5870 5871 5872 5873 5875 5877 5878 5878 5879 5879 5880 5880 5880
5578 5585 5590 5596 5604 5611 5617 5621 5626 5633 5639 5645 5651 5659 5666 5673 5679 5685 5692 5699 5704 5710 5716 5722 5727 5734 5741 5745 5747 5749 5752 5756 5764 5770 5772 5775 5777 5781 5785 5789 5793 5796 5800 5803 5806 5809 5811 5814 5818 5822 5825 5827 5830 5833 5834 5836 5839 5841 5844 5845 5845 5845 5846 5847 5849 5850 5853 5855 5857 5859 5860 5862 5864 5866 5867 5869 5869 5870 5871 5873 5875 5876 5877 5878 5878 5879 5879 5879
5570 5578 5584 5590 5596 5603 5611 5614 5619 5626 5632 5638 5645 5653 5660 5666 5673 5679 5687 5693 5698 5703 5710 5717 5721 5728 5735 5739 5743 5745 5749 5753 5759 5765 5768 5770 5773 5776 5781 5785 5789 5793 5796 5799 5802 5805 5807 5811 5816 5819 5821 5824 5827 5829 5831 5833 5835 5838 5841 5842 5843 5843 5843 5844 5846 5848 5850 5852 5854 5856 5858 5859 5861 5863 5866 5867 5867 5869 5870 5870 5872 5874 5875 5877 5877 5878 5878 5878
5563 5571 5579 5584 5590 5597 5604 5608 5612 5619 5625 5631 5639 5647 5653 5659 5666 5673 5681 5687 5693 5698 5704 5710 5716 5722 5727 5732 5735 5738 5747 5752 5756 5762 5764 5766 5768 5772 5777 5781 5785 5789 5793 5795 5798 5801 5804 5808 5813 5815 5817 5820 5823 5826 5828 5829 5831 5835 5837 5839 5840 5840 5840 5841 5843 5845 5847 5849 5852 5854 5855 5856 5858 5861 5864 5865 5865 5867 5868 5868 5869 5871 5873 5874 5876 5877 5877 5877
5556 5564 5572 5578 5585 5592 5598 5602 5605 5611 5619 5625 5632 5640 5647 5653 5660 5667 5675 5681 5689 5695 5698 5703 5710 5714 5719 5724 5725 5733 5747 5750 5750 5757 5760 5762 5764 5768 5773 5777 5781 5784 5788 5791 5794 5798 5801 5804 5808 5811 5813 5816 5819 5821 5823 5825 5828 5831 5833 5835 5836 5837 5837 5839 5841 5842 5844 5846 5849 5851 5852 5854 5855 5860 5863 5863 5862 5864 5866 5866 5867 5869 5870 5872 5874 5875 5876 5876
5548 5557 5565 5572 5580 5587 5593 5596 5598 5605 5613 5619 5626 5634 5641 5648 5654 5661 5669 5675 5684 5690 5692 5698 5704 5708 5713 5717 5720 5733 5746 5745 5744 5750 5754 5757 5758 5762 5768 5772 5777 5780 5783 5787 5790 5794 5796 5798 5801 5805 5808 5811 5813 5816 5818 5821 5825 5828 5829 5831 5833 5834 5835 5837 5839 5840 5842 5844 5846 5848 5849 5850 5853 5859 5861 5859 5858 5860 5863 5864 5865 5867 5868 5869 5871 5873 5875 5875
5542 5551 5559 5567 5574 5582 5587 5590 5593 5599 5606 5613 5620 5628 5635 5641 5648 5655 5663 5670 5678 5683 5687 5694 5699 5703 5708 5711 5718 5732 5739 5738 5739 5744 5749 5753 5753 5757 5763 5768 5772 5776 5779 5783 5787 5790 5791 5794 5797 5800 5804 5807 5809 5811 5814 5817 5820 5824 5826 5827 5829 5830 5832 5834 5836 5838 5840 5841 5843 5845 5845 5847 5853 5859 5857 5854 5855 5857 5860 5862 5863 5865 5866 5867 5869 5870 5872 5874
5536 5546 5555 5562 5568 5575 5580 5585 5589 5594 5600 5607 5614 5622 5629 5635 5643 5650 5657 5665 5671 5677 5684 5691 5695 5699 5702 5706 5716 5726 5730 5731 5733 5737 5744 5749 5750 5753 5758 5764 5768 5771 5775 5779 5782 5785 5787 5790 5793 5796 5800 5803 5805 5807 5811 5814 5816 5820 5822 5824 5826 5827 5828 5831 5833 5835 5837 5838 5840 5841 5841 5846 5853 5855 5853 5851 5852 5854 5858 5860 5861 5862 5863 5865 5866 5868 5869 5871
5529 5540 5550 5557 5564 5570 5576 5581 5585 5589 5595 5601 5609 5616 5623 5630 5637 5644 5652 5658 5665 5672 5678 5685 5692 5694 5696 5702 5711 5717 5722 5725 5726 5731 5739 5744 5747 5749 5753 5759 5764 5768 5771 5774 5778 5781 5783 5786 5788 5792 5795 5798 5802 5804 5807 5810 5813 5817 5819 5820 5822 5823 5825 5829 5830 5831 5834 5835 5838 5837 5836 5845 5851 5850 5850 5849 5849 5852 5855 5858 5858 5860 5861 5863 5865 5866 5867 5868
5523 5534 5545 5552 5559 5566 5571 5576 5580 5584 5590 5596 5603 5610 5617 5625 5630 5638 5646 5652 5659 5665 5672 5678 5684 5685 5686 5694 5704 5710 5715 5719 5721 5727 5734 5740 5743 5745 5749 5755 5760 5764 5766 5768 5773 5776 5778 5781 5784 5786 5790 5794 5797 5800 5803 5806 5809 5813 5815 5817 5819 5820 5823 5827 5827 5828 5831 5832 5834 5833 5833 5844 5849 5846 5847 5848 5847 5849 5852 5855 5855 5858 5860 5861 5863 5864 5865 5866
5518 5528 5538 5547 5554 5561 5567 5572 5575 5579 5585 5592 5598 5605 5612 5618 5624 5631 5638 5645 5653 5660 5666 5669 5673 5678 5680 5686 5696 5701 5706 5711 5715 5722 5730 5737 5740 5742 5745 5750 5754 5758 5761 5764 5767 5770 5773 5776 5778 5782 5786 5789 5792 5796 5798 5801 5805 5809 5812 5814 5817 5818 5820 5823 5824 5825 5828 5829 5830 5831 5832 5842 5847 5843 5844 5845 5845 5847 5849 5851 5852 5855 5858 5860 5862 5863 5864 5865
5512 5523 5533 5541 5548 5555 5562 5567 5571 5576 5581 5587 5593 5600 5606 5610 5617 5624 5630 5638 5646 5653 5658 5660 5665 5672 5675 5680 5688 5693 5699 5706 5711 5719 5726 5732 5736 5739 5741 5744 5749 5753 5757 5759 5761 5764 5767 5769 5773 5777 5782 5785 5788 5791 5793 5796 5802 5806 5809 5811 5812 5813 5815 5818 5822 5824 5825 5826 5828 5829 5830 5839 5844 5840 5840 5841 5842 5844 5845 5847 5849 5853 5857 5859 5861 5862 5863 5864
5507 5517 5527 5536 5544 5551 5557 5563 5568 5571 5576 5582 5587 5593 5598 5603 5609 5616 5623 5632 5638 5643 5646 5649 5656 5659 5662 5673 5683 5690 5698 5703 5708 5715 5721 5726 5732 5735 5736 5740 5744 5748 5752 5754 5755 5757 5760 5764 5768 5771 5775 5779 5783 5787 5790 5795 5801 5803 5805 5805 5806 5809 5812 5816 5821 5823 5823 5824 5826 5826 5827 5835 5841 5838 5837 5838 5838 5840 5842 5844 5847 5851 5855 5857 5858 5860 5861 5862
5502 5512 5522 5532 5540 5546 5553 5559 5564 5566 5570 5575 5579 5587 5593 5597 5603 5609 5616 5623 5628 5630 5632 5639 5647 5651 5662 5677 5683 5689 5696 5700 5704 5710 5714 5720 5727 5731 5732 5734 5739 5743 5746 5749 5751 5753 5756 5759 5761 5764 5771 5777 5782 5787 5790 5794 5797 5798 5798 5799 5802 5806 5810 5813 5817 5819 5819 5819 5821 5822 5823 5829 5836 5835 5834 5834 5834 5836 5838 5842 5846 5849 5852 5853 5855 5857 5859 5860
5498 5509 5519 5529 5536 5542 5549 5554 5558 5560 5563 5567 5572 5578 5583 5585 5591 5597 5604 5613 5620 5627 5635 5645 5652 5657 5669 5678 5681 5687 5693 5695 5700 5706 5710 5716 5721 5725 5727 5729 5732 5735 5739 5744 5747 5749 5752 5753 5756 5764 5772 5778 5782 5785 5787 5788 5790 5790 5792 5796 5799 5803 5807 5810 5812 5814 5815 5815 5816 5819 5818 5823 5832 5833 5832 5831 5831 5832 5836 5840 5844 5847 5848 5850 5852 5854 5857 5858
5496 5506 5516 5526 5532 5538 5544 5549 5552 5555 5559 5562 5566 5570 5575 5580 5588 5595 5602 5611 5619 5629 5639 5647 5651 5657 5665 5671 5677 5683 5685 5688 5694 5699 5705 5709 5714 5718 5721 5725 5727 5729 5736 5742 5744 5746 5747 5747 5754 5764 5770 5774 5778 5779 5780 5782 5783 5785 5789 5793 5795 5798 5803 5806 5808 5809 5811 5812 5813 5815 5815 5819 5827 5831 5830 5829 5828 5829 5833 5837 5841 5843 5844 5846 5849 5851 5853 5855
5492 5502 5513 5521 5527 5534 5540 5544 5548 5552 5555 5557 5560 5567 5578 5589 5599 5604 5609 5615 5620 5628 5635 5640 5644 5651 5660 5667 5673 5676 5677 5682 5687 5692 5696 5700 5706 5711 5716 5722 5725 5727 5732 5735 5737 5740 5741 5743 5752 5761 5764 5767 5770 5770 5773 5775 5777 5779 5783 5787 5789 5793 5797 5800 5803 5805 5806 5807 5808 5810 5811 5814 5821 5826 5827 5825 5825 5827 5830 5833 5836 5838 5839 5842 5845 5847 5849 5852
5487 5498 5508 5517 5524 5530 5536 5541 5545 5547 5549 5552 5557 5568 5581 5590 5597 5601 5606 5613 5618 5624 5628 5632 5638 5647 5656 5662 5667 5670 5673 5678 5683 5689 5693 5697 5703 5708 5713 5719 5722 5724 5725 5727 5731 5735 5737 5741 5748 5755 5758 5760 5761 5763 5767 5769 5771 5773 5778 5782 5785 5790 5792 5795 5798 5799 5800 5802 5803 5805 5806 5809 5815 5820 5823 5823 5822 5824 5827 5830 5832 5834 5836 5839 5841 5843 5846 5849
5484 5493 5502 5512 5520 5526 5532 5537 5538 5538 5544 5552 5560 5570 5580 5586 5590 5595 5600 5605 5612 5619 5623 5627 5635 5644 5651 5657 5662 5666 5668 5672 5679 5686 5690 5696 5701 5705 5711 5714 5715 5718 5721 5725 5728 5730 5735 5739 5743 5749 5753 5753 5754 5757 5761 5764 5767 5770 5774 5779 5784 5788 5789 5791 5792 5793 5795 5796 5799 5800 5799 5803 5809 5814 5819 5822 5820 5821 5825 5826 5828 5832 5834 5835 5837 5839 5843 5845
5481 5489 5498 5508 5515 5522 5528 5529 5528 5532 5542 5550 5557 5565 5573 5579 5586 5592 5596 5600 5605 5612 5617 5622 5630 5637 5644 5652 5657 5660 5663 5666 5674 5680 5685 5692 5696 5701 5708 5708 5708 5714 5720 5723 5723 5724 5731 5734 5738 5743 5744 5746 5749 5753 5756 5760 5764 5767 5771 5778 5782 5784 5786 5786 5787 5787 5788 5791 5795 5795 5791 5796 5805 5809 5815 5820 5818 5819 5822 5823 5826 5829 5832 5833 5834 5837 5839 5841
5477 5486 5495 5503 5510 5516 5519 5519 5522 5529 5537 5544 5552 5561 5568 5576 5582 5586 5592 5595 5597 5602 5608 5617 5625 5632 5640 5646 5650 5654 5656 5659 5667 5673 5679 5684 5688 5694 5700 5700 5703 5710 5715 5716 5715 5720 5727 5730 5733 5736 5738 5742 5745 5748 5752 5756 5759 5762 5769 5774 5776 5779 5781 5780 5781 5780 5780 5784 5789 5789 5786 5790 5799 5806 5811 5816 5817 5817 5819 5821 5824 5827 5829 5831 5832 5834 5835 5836
5474 5483 5492 5499 5504 5507 5510 5514 5520 5527 5535 5543 5552 5559 5565 5573 5577 5580 5586 5586 5586 5594 5604 5612 5619 5627 5635 5639 5644 5649 5649 5654 5664 5669 5673 5679 5683 5688 5690 5692 5699 5705 5708 5707 5710 5720 5727 5727 5728 5731 5734 5737 5740 5745 5750 5754 5755 5759 5766 5768 5770 5773 5773 5772 5773 5772 5774 5778 5781 5784 5785 5785 5792 5803 5808 5811 5814 5816 5816 5818 5821 5824 5826 5828 5829 5831 5832 5833
5471 5480 5489 5495 5500 5505 5510 5514 5519 5529 5538 5545 5551 5556 5562 5568 5569 5573 5576 5573 5578 5591 5599 5606 5614 5622 5630 5635 5640 5643 5645 5655 5664 5666 5671 5676 5679 5682 5685 5690 5698 5703 5701 5702 5710 5721 5723 5723 5726 5729 5730 5731 5737 5745 5748 5749 5751 5754 5760 5762 5765 5766 5765 5766 5767 5767 5770 5771 5772 5779 5783 5781 5785 5798 5805 5807 5811 5813 5815 5816 5818 5821 5823 5824 5825 5827 5829 5829
5469 5478 5486 5492 5497 5503 5507 5511 5518 5528 5535 5539 5545 5550 5555 5561 5563 5567 5567 5567 5579 5590 5595 5602 5609 5616 5623 5628 5633 5637 5644 5652 5657 5662 5669 5671 5674 5679 5684 5691 5697 5698 5695 5697 5707 5712 5712 5717 5721 5721 5723 5729 5738 5743 5744 5745 5746 5749 5754 5757 5759 5759 5759 5762 5761 5763 5765 5762 5766 5777 5780 5776 5779 5792 5798 5800 5806 5810 5812 5814 5815 5816 5818 5820 5822 5823 5824 5825
5467 5476 5483 5488 5492 5496 5500 5506 5514 5522 5527 5532 5539 5544 5549 5552 5553 5555 5554 5561 5576 5585 5590 5598 5605 5612 5618 5623 5629 5635 5642 5647 5651 5659 5662 5663 5669 5675 5680 5686 5689 5690 5691 5694 5700 5703 5707 5712 5713 5715 5722 5729 5735 5736 5737 5740 5742 5745 5749 5752 5754 5753 5755 5757 5755 5759 5756 5753 5764 5777 5778 5772 5772 5785 5792 5793 5801 5807 5808 5810 5811 5813 5815 5816 5817 5819 5820 5822
5466 5474 5479 5483 5489 5494 5498 5503 5510 5517 5522 5527 5532 5536 5542 5545 5545 5544 5546 5560 5575 5578 5584 5593 5599 5607 5615 5621 5627 5632 5638 5643 5648 5653 5654 5658 5664 5667 5673 5678 5679 5682 5686 5688 5693 5698 5702 5704 5708 5716 5723 5726 5729 5730 5732 5734 5737 5741 5744 5748 5750 5749 5751 5751 5750 5752 5746 5748 5767 5776 5773 5766 5762 5777 5790 5790 5797 5804 5804 5807 5808 5809 5811 5812 5813 5815 5817 5818
5465 5471 5477 5482 5489 5494 5500 5505 5510 5516 5519 5522 5525 5529 5535 5538 5537 5539 5548 5563 5570 5571 5580 5589 5595 5605 5612 5618 5624 5629 5635 5639 5643 5647 5651 5657 5661 5664 5670 5673 5676 5680 5681 5686 5693 5695 5696 5699 5706 5712 5715 5720 5724 5726 5728 5731 5734 5738 5740 5743 5744 5744 5746 5745 5744 5745 5741 5748 5768 5772 5765 5756 5754 5773 5789 5788 5793 5799 5802 5804 5805 5806 5807 5808 5810 5811 5813 5815
5463 5470 5475 5481 5488 5492 5498 5503 5506 5510 5513 5515 5519 5524 5529 5530 5530 5539 5553 5562 5563 5568 5581 5590 5597 5607 5612 5615 5620 5626 5631 5635 5639 5644 5649 5655 5657 5661 5667 5670 5673 5676 5678 5688 5694 5691 5690 5694 5699 5702 5708 5716 5720 5723 5727 5731 5734 5736 5738 5741 5741 5741 5741 5740 5741 5741 5740 5749 5763 5764 5755 5746 5751 5772 5786 5787 5788 5794 5800 5802 5801 5802 5803 5804 5806 5807 5809 5811
5462 5469 5473 5479 5485 5490 5495 5498 5500 5505 5508 5511 5514 5517 5520 5524 5531 5543 5553 5559 5561 5570 5583 5590 5597 5604 5607 5612 5618 5622 5625 5629 5635 5641 5645 5649 5651 5654 5660 5663 5667 5670 5675 5683 5686 5685 5685 5687 5692 5701 5708 5712 5717 5723 5726 5729 5731 5732 5735 5736 5735 5736 5736 5737 5739 5738 5740 5748 5754 5753 5744 5738 5753 5774 5783 5784 5783 5786 5794 5798 5796 5798 5800 5801 5803 5803 5805 5807
5461 5466 5471 5477 5481 5486 5490 5493 5496 5502 5504 5506 5509 5510 5513 5521 5533 5543 5551 5556 5560 5570 5582 5588 5594 5598 5601 5608 5612 5616 5621 5624 5630 5635 5638 5642 5646 5651 5656 5660 5664 5667 5671 5676 5679 5682 5683 5682 5691 5702 5705 5705 5710 5716 5717 5719 5722 5724 5727 5726 5727 5733 5734 5734 5735 5735 5738 5741 5743 5743 5736 5739 5757 5771 5776 5779 5778 5779 5785 5791 5792 5794 5797 5797 5798 5799 5800 5802
5458 5463 5468 5474 5479 5483 5487 5489 5492 5496 5500 5502 5503 5506 5514 5526 5537 5545 5553 5558 5562 5571 5580 5583 5587 5592 5596 5601 5604 5610 5615 5619 5625 5629 5632 5637 5641 5646 5651 5656 5661 5663 5667 5673 5676 5680 5681 5683 5691 5696 5696 5701 5706 5707 5707 5712 5717 5719 5719 5720 5727 5733 5730 5730 5731 5731 5733 5732 5733 5737 5735 5742 5754 5762 5769 5775 5774 5776 5780 5785 5789 5790 5792 5793 5794 5796 5797 5797
5454 5460 5466 5472 5477 5482 5485 5488 5490 5492 5496 5499 5502 5510 5522 5532 5540 5546 5552 5556 5562 5570 5575 5577 5581 5585 5590 5594 5600 5606 5610 5614 5620 5623 5628 5633 5634 5640 5647 5651 5656 5659 5665 5671 5673 5676 5679 5683 5689 5689 5691 5699 5702 5700 5700 5706 5710 5711 5713 5719 5725 5724 5721 5724 5725 5724 5727 5725 5727 5733 5736 5742 5747 5753 5765 5770 5772 5776 5776 5777 5782 5785 5787 5789 5790 5792 5793 5793
5453 5460 5467 5471 5476 5481 5484 5486 5488 5491 5494 5497 5503 5515 5524 5530 5536 5542 5547 5552 5558 5565 5570 5573 5577 5582 5587 5592 5599 5605 5607 5611 5615 5618 5623 5626 5629 5638 5645 5649 5654 5659 5665 5669 5668 5672 5676 5679 5684 5685 5688 5693 5694 5692 5695 5701 5703 5705 5711 5716 5716 5713 5715 5719 5717 5719 5722 5720 5722 5729 5733 5736 5740 5748 5760 5766 5769 5772 5770 5770 5775 5779 5783 5784 5785 5788 5788 5789
5454 5460 5464 5470 5475 5478 5481 5483 5486 5488 5491 5494 5503 5514 5521 5527 5534 5539 5545 5550 5555 5561 5564 5567 5574 5581 5586 5592 5599 5602 5604 5608 5612 5616 5620 5622 5627 5638 5644 5648 5652 5657 5662 5664 5663 5668 5673 5674 5678 5682 5684 5685 5686 5685 5688 5696 5699 5700 5705 5708 5707 5709 5711 5712 5712 5715 5718 5716 5718 5724 5726 5729 5738 5748 5755 5760 5764 5765 5765 5766 5768 5771 5775 5778 5780 5783 5783 5784
5453 5457 5462 5467 5472 5474 5478 5481 5481 5483 5489 5497 5506 5514 5519 5526 5532 5537 5541 5546 5551 5556 5559 5564 5572 5579 5584 5590 5595 5598 5602 5606 5609 5613 5616 5619 5627 5636 5639 5643 5648 5653 5658 5658 5658 5664 5665 5665 5671 5676 5677 5676 5679 5682 5687 5695 5696 5695 5699 5702 5703 5706 5705 5705 5707 5708 5710 5711 5713 5717 5717 5724 5740 5748 5748 5753 5757 5757 5760 5762 5761 5763 5767 5770 5774 5776 5776 5778
5451 5456 5460 5465 5468 5471 5473 5474 5475 5482 5491 5499 5506 5511 5517 5523 5529 5534 5538 5542 5547 5553 5558 5564 5571 5575 5580 5585 5589 5593 5598 5601 5604 5608 5612 5616 5624 5630 5636 5642 5647 5652 5654 5651 5652 5657 5658 5661 5667 5670 5669 5669 5675 5684 5688 5689 5689 5690 5695 5698 5700 5702 5701 5701 5700 5700 5705 5706 5708 5711 5710 5719 5738 5744 5743 5749 5751 5751 5754 5756 5758 5760 5760 5763 5767 5769 5770 5772
5450 5454 5458 5462 5465 5468 5470 5471 5475 5484 5492 5498 5503 5509 5515 5520 5526 5531 5536 5541 5546 5551 5556 5561 5566 5571 5575 5580 5584 5589 5593 5596 5599 5604 5608 5614 5621 5628 5636 5641 5644 5647 5647 5645 5650 5655 5655 5657 5659 5660 5661 5664 5671 5677 5678 5679 5681 5683 5687 5691 5694 5693 5692 5694 5695 5698 5702 5701 5705 5708 5702 5712 5734 5741 5741 5745 5746 5747 5751 5752 5755 5758 5756 5757 5759 5762 5765 5767
5450 5454 5459 5463 5465 5467 5469 5470 5474 5482 5490 5496 5502 5507 5512 5517 5523 5528 5534 5539 5543 5548 5553 5558 5563 5568 5572 5576 5580 5584 5588 5592 5596 5600 5606 5611 5618 5626 5630 5633 5635 5637 5637 5639 5645 5648 5647 5647 5649 5653 5657 5660 5663 5665 5668 5673 5675 5674 5677 5684 5687 5686 5688 5692 5693 5696 5696 5694 5700 5701 5695 5709 5732 5737 5737 5740 5741 5743 5746 5748 5751 5752 5752 5753 5753 5755 5758 5760
5448 5453 5458 5462 5464 5466 5467 5469 5474 5481 5488 5493 5499 5505 5511 5516 5521 5527 5533 5537 5542 5546 5551 5556 5561 5565 5569 5572 5575 5579 5583 5587 5590 5596 5601 5606 5613 5620 5621 5623 5627 5628 5630 5634 5640 5642 5640 5640 5644 5648 5649 5651 5653 5654 5657 5665 5668 5668 5673 5679 5682 5685 5688 5688 5689 5690 5687 5687 5695 5694 5691 5710 5730 5734 5734 5737 5738 5740 5742 5742 5743 5745 5747 5749 5749 5749 5750 5752
5446 5450 5455 5458 5461 5463 5465 5470 5477 5483 5487 5492 5498 5505 5510 5514 5519 5526 5531 5535 5540 5544 5548 5553 5558 5562 5564 5567 5570 5574 5578 5581 5586 5591 5595 5600 5608 5612 5613 5617 5620 5622 5627 5632 5634 5635 5633 5633 5636 5638 5638 5640 5644 5648 5656 5664 5668 5668 5670 5673 5677 5681 5682 5682 5685 5684 5680 5685 5692 5687 5690 5710 5725 5727 5730 5732 5733 5734 5736 5735 5736 5738 5741 5743 5744 5744 5745 5746
5444 5447 5450 5453 5457 5460 5464 5470 5476 5480 5485 5492 5497 5502 5507 5512 5518 5524 5527 5531 5536 5541 5545 5550 5554 5556 5559 5562 5566 5569 5574 5579 5582 5586 5590 5597 5604 5607 5609 5612 5614 5617 5623 5625 5623 5624 5624 5624 5627 5629 5629 5634 5641 5651 5660 5664 5661 5659 5662 5668 5672 5674 5676 5678 5677 5673 5677 5685 5684 5683 5692 5706 5714 5720 5726 5727 5726 5727 5729 5729 5730 5732 5733 5735 5738 5739 5739 5741
5442 5445 5447 5450 5452 5457 5461 5466 5471 5477 5484 5491 5496 5501 5506 5511 5516 5520 5524 5528 5533 5538 5541 5545 5548 5551 5555 5560 5564 5568 5573 5577 5578 5582 5588 5594 5600 5603 5604 5606 5608 5612 5617 5616 5614 5616 5616 5616 5620 5623 5625 5630 5639 5648 5652 5650 5647 5649 5654 5660 5664 5666 5669 5669 5665 5668 5678 5678 5673 5682 5694 5699 5706 5716 5721 5721 5720 5720 5721 5721 5722 5724 5725 5727 5730 5732 5734 5735
5440 5443 5447 5450 5453 5456 5460 5466 5473 5479 5485 5490 5495 5500 5504 5508 5512 5517 5522 5527 5531 5534 5537 5541 5546 5550 5555 5560 5562 5566 5570 5571 5573 5579 5585 5590 5595 5597 5599 5601 5604 5608 5611 5609 5608 5611 5611 5611 5617 5620 5621 5627 5634 5639 5640 5639 5639 5642 5645 5649 5654 5656 5657 5658 5659 5667 5673 5667 5667 5682 5690 5689 5698 5710 5713 5715 5714 5712 5713 5715 5715 5716 5719 5721 5722 5725 5729 5730
5439 5442 5445 5450 5456 5461 5467 5473 5477 5480 5484 5488 5492 5496 5501 5506 5511 5516 5520 5523 5527 5531 5535 5540 5546 5550 5554 5557 5558 5560 5564 5567 5572 5578 5583 5588 5591 5593 5594 5596 5600 5604 5605 5603 5604 5607 5605 5607 5614 5617 5616 5620 5627 5630 5631 5632 5632 5634 5637 5641 5645 5646 5647 5649 5653 5660 5664 5660 5665 5677 5680 5679 5689 5702 5709 5710 5707 5705 5708 5710 5711 5712 5712 5713 5714 5717 5722 5724
5439 5443 5446 5451 5457 5463 5467 5469 5472 5476 5482 5485 5489 5494 5499 5504 5510 5514 5517 5520 5525 5530 5533 5539 5546 5548 5550 5551 5552 5556 5561 5567 5572 5577 5581 5583 5585 5587 5589 5590 5595 5599 5598 5597 5599 5601 5600 5603 5610 5613 5609 5610 5618 5623 5623 5624 5624 5625 5628 5632 5636 5638 5639 5641 5644 5650 5654 5654 5659 5668 5670 5672 5684 5697 5703 5702 5699 5701 5704 5705 5706 5706 5704 5704 5705 5708 5713 5716
5438 5442 5447 5452 5457 5460 5462 5465 5470 5474 5478 5481 5488 5494 5498 5503 5509 5512 5514 5519 5523 5527 5531 5538 5543 5543 5543 5545 5548 5555 5562 5565 5568 5572 5574 5574 5577 5580 5581 5582 5587 5589 5589 5591 5593 5594 5595 5598 5604 5605 5599 5600 5612 5618 5616 5618 5618 5613 5614 5621 5627 5630 5634 5637 5640 5644 5647 5650 5655 5659 5659 5667 5684 5694 5693 5691 5693 5696 5697 5698 5698 5697 5696 5697 5697 5700 5704 5708
5437 5440 5445 5449 5454 5457 5460 5464 5467 5470 5475 5482 5489 5493 5497 5503 5507 5508 5511 5516 5520 5524 5529 5534 5536 5536 5538 5541 5548 5557 5562 5560 5561 5563 5564 5565 5569 5572 5572 5574 5578 5580 5582 5585 5586 5586 5590 5592 5596 5597 5591 5594 5608 5612 5611 5612 5603 5593 5602 5618 5624 5628 5633 5635 5635 5637 5640 5644 5646 5646 5652 5667 5681 5683 5680 5684 5691 5690 5688 5688 5688 5687 5689 5690 5691 5695 5698 5700